Regional Weather Roundup
Issued by NWS

Home | Current Version | Previous Version | Graphics & Text | Print | Product List | Glossary On
Versions: 1 2 3 4 5 6 7 8 9 10 11 12 13 14 15 16 17 18 19 20 21 22 23 24 25 26 27 28 29 30 31 32 33 34 35 36 37 38 39 40 41 42 43 44 45 46 47 48 49 50
000
ASUS45 KCYS 010510
RWRWY

WYOMING REGIONAL WEATHER ROUNDUP
NATIONAL WEATHER SERVICE CHEYENNE WY
1100 PM MDT TUE SEP 30 2014

NOTE:  "FAIR" INDICATES FEW OR NO CLOUDS BELOW 12,000 FEET
WITH NO SIGNIFICANT WEATHER AND/OR OBSTRUCTIONS TO VISIBILITY.

WYZ001-010600-
YELLOWSTONE NATIONAL PARK

CITY           SKY/WX    TMP DP  RH WIND       PRES   REMARKS
LK YELLOWSTONE   N/A     33  32  96 VRB3      29.98R
W YELLOWSTONE  NOT AVBL

$$
WYZ002>013-054>058-071-098>099-010600-
NORTHERN WYOMING

CITY           SKY/WX    TMP DP  RH WIND       PRES   REMARKS
JACKSON        MOCLDY    37  34  87 SW10      29.95S WCI  30
CODY           CLOUDY    46  45  93 NE9       29.85R
GREYBULL       LGT RAIN  53  46  77 NW15      29.80R
WORLAND        MOCLDY    50  47  89 CALM      29.81R
SHERIDAN       CLOUDY    52  43  71 NW14      29.79R
BUFFALO        CLOUDY    49  41  74 S3        29.81R
GILLETTE       CLOUDY    48  44  86 W10       29.77S
HULETT         MOCLDY    52  45  76 SW8       29.75
NEWCASTLE      FAIR      52  43  71 NW9       29.78

$$
WYZ014>020-022>026-101>103-010600-
CENTRAL WYOMING

CITY           SKY/WX    TMP DP  RH WIND       PRES   REMARKS
BIG PINEY      PTCLDY    36  30  79 N8        29.97S WCI  30
PINEDALE       CLOUDY    39  34  81 W3        29.97S
DUBOIS         FAIR      37  32  81 NW5       29.91R WCI  34
LANDER         PTCLDY    49  38  65 CALM      29.83R
RIVERTON       MOCLDY    50  38  63 NW14      29.83R
CASPER         CLOUDY    49  39  68 SW7       29.82S
DOUGLAS        CLOUDY    50  45  83 NE3       29.83R

$$
WYZ021-027>030-104>119-010600-
SOUTHERN WYOMING

CITY           SKY/WX    TMP DP  RH WIND       PRES   REMARKS
EVANSTON       PTCLDY    38  36  92 SW6       30.01S WCI  33
KEMMERER       MOCLDY    36  36 100 W5        30.00S WCI  32
FORT BRIDGER     N/A     41  40  97 W8        30.03F
ROCK SPRINGS   CLOUDY    42  37  82 SW12      29.98R
DIXON          CLOUDY    42  40  93 CALM      30.01S
RAWLINS        PTCLDY    43  38  82 SW17      29.94S
SARATOGA       MOCLDY    43  37  81 SW12G18   29.97S
LARAMIE        CLOUDY    42  35  76 SW13      29.93F
CHEYENNE       CLOUDY    51  38  60 SW9       29.89F
TORRINGTON     CLOUDY    55  44  66 W8        29.78F
PINE BLUFFS    CLOUDY    52  39  62 W7        29.86F

$$


USA.gov is the U.S. government's official web portal to all federal, state and local government web resources and services.